{"data":{"norad_id":62193,"epoch":"2026-05-24T21:13:31.664064Z","epoch_age_seconds":85209,"freshness":"FRESH","line1":"1 62193U 24229B   26144.88439426  .00010431  00000+0  38797-3 0  9996","line2":"2 62193  43.0021 200.4772 0001982 284.8517  75.2115 15.27585283 82210","mean_motion":15.27585283,"eccentricity":0.0001982,"inclination_deg":43.0021,"raan_deg":200.4772,"arg_perigee_deg":284.8517,"mean_anomaly_deg":75.2115,"bstar":0.00038797,"rev_number":8221,"period_min":94.266422701586,"perigee_km":481.67339293382,"apogee_km":484.39316083157,"semimajor_km":6861.1702768827,"source":"CELESTRAK","updated_at":"2026-05-25T13:38:19.605795Z"}}